Regional Weather Roundup
Issued by NWS

Home | Current Version | Previous Version | Text Only | Print | Product List | Glossary Off
Versions: 1 2 3 4 5 6 7 8 9 10 11 12 13 14 15 16 17 18 19 20 21 22 23 24 25 26 27 28 29 30 31 32 33 34 35 36 37 38 39 40 41 42 43 44 45 46 47 48 49 50

000
ASUS43 KFSD 301910
RWRSD

WEATHER ROUNDUP FOR SOUTH DAKOTA
NATIONAL WEATHER SERVICE SIOUX FALLS SD
200 PM CDT SAT AUG 30 2014

NOTE: "FAIR" INDICATES FEW OR NO CLOUDS BELOW 12,000 FEET WITH NO
SIGNIFICANT WEATHER AND/OR OBSTRUCTIONS TO VISIBILITY.


SDZ001>005-009-010-012>017-302000-
NORTHWEST AND NORTH CENTRAL SOUTH DAKOTA

CITY           SKY/WX    TMP DP  RH WIND       PRES   REMARKS
BUFFALO          N/A     76  57  51 SE25      29.70F
FAITH            N/A     73  59  61 SE22G29   29.81F
MOBRIDGE       SUNNY     70  57  63 S14       29.84F
$$

SDZ012>016-024>037-041>051-057-063-072>074-302000-
SOUTHWEST AND SOUTH CENTRAL SOUTH DAKOTA

CITY           SKY/WX    TMP DP  RH WIND       PRES   REMARKS
RAPID CTY ARPT SUNNY     80  58  46 SE18      29.80F
PIERRE         SUNNY     74  57  55 E14       29.84F
CUSTER         SUNNY     80  44  27 S10G18    29.92F
ELLSWORTH AFB  SUNNY     80  59  48 S18G25    29.78F
PHILIP         SUNNY     80  59  48 S12G23    29.81F
PINE RIDGE     SUNNY     85  56  37 S18       29.83F
WINNER         FAIR      78  58  49 SE12      29.88F
$$

SDZ004>011-016>023-039-040-302000-
NORTHEAST SOUTH DAKOTA

CITY           SKY/WX    TMP DP  RH WIND       PRES   REMARKS
ABERDEEN       MOSUNNY   67  57  70 CALM      29.90F
WATERTOWN      CLOUDY    65  58  78 W5        29.91F
SISSETON         N/A     67  58  72 CALM      29.89S
$$

SDZ017-020-022-023-036>040-048>070-302000-
SOUTHEAST SOUTH DAKOTA

CITY           SKY/WX    TMP DP  RH WIND       PRES   REMARKS
SIOUX FALLS    CLOUDY    68  59  73 W6        29.93S
HURON          CLOUDY    68  58  70 SW6       29.91F
CHAMBERLAIN    SUNNY     70  58  64 SE8       29.89F
MITCHELL       CLOUDY    65  58  78 W6        29.94S
YANKTON        MOSUNNY   66  57  72 N5        29.93F
$$

ABBREVIATIONS USED IN REMARKS
   TC - TEMPERATURE IN CELSIUS
  WCI - WIND CHILL INDEX
   HX - HEAT INDEX
  VSB - VISIBILITY



USA.gov is the U.S. government's official web portal to all federal, state and local government web resources and services.